Starlink 32895

operational
NORAD ID: 63081 Int'l Des: 2025-037 Owner: SPXS Country: US Constellation: starlink
LEOCIRCULAR

Starlink 32895について

説明を読み込み中...

リアルタイム位置

3D地球を読み込み中...

次回通過

高度履歴

Altitude vs Time

uPlot chart will show altitude changes over time

軌道要素

1 63081U 25037E 25352.94763289 .00003954 00000-0 33892-3 0 9999
2 63081 69.9993 198.1939 0002825 272.4998 87.5837 14.98341902 46361
Epoch: Dec 18, 2025 • Age: 6 hours

現在のステータス

高度 581.4 km
速度 7.57 km/s
衛星直下点 -29.44°S, 22.51°E
打ち上げ日 Feb 23, 2025
運用期間 0.8 years
タイプ internet

技術仕様

分類 Payload
質量 730.00 kg
乾燥質量 700.00 kg
総質量 730.00 kg
長さ 0.30 m
直径 4.10 m
スパン 29.00 m
形状 Box + pan
製造者 SPXS
バスタイプ Starlink V2M
フェーズステータス In Orbit
所有者/国 SPXS/US

大規模コンステレーション

Loading constellations...